TimeHST,TemperatureF,Dew PointF,Humidity,Sea Level PressureIn,VisibilityMPH,Wind Direction,Wind SpeedMPH,Gust SpeedMPH,PrecipitationIn,Events,Conditions,WindDirDegrees,DateUTC
12:22 AM,69.8,64.4,83,30.21,10.0,NE,18.4,-,N/A,,Mostly Cloudy,40,2013-02-19 10:22:00
12:53 AM,70.0,63.0,78,30.20,10.0,ENE,17.3,-,N/A,,Mostly Cloudy,60,2013-02-19 10:53:00
1:53 AM,69.1,63.0,81,30.19,10.0,NE,17.3,-,0.00,,Scattered Clouds,50,2013-02-19 11:53:00
2:53 AM,68.0,64.9,90,30.17,9.0,ENE,15.0,-,0.02,,Overcast,60,2013-02-19 12:53:00
3:53 AM,66.0,62.1,87,30.16,3.0,NE,17.3,31.1,0.03,Rain,Light Rain,50,2013-02-19 13:53:00
4:53 AM,68.0,63.0,84,30.16,10.0,East,21.9,28.8,0.00,,Overcast,80,2013-02-19 14:53:00
5:44 AM,69.8,62.6,78,30.17,9.0,ENE,20.7,-,0.01,Rain,Light Rain,60,2013-02-19 15:44:00
5:53 AM,69.1,63.0,81,30.16,9.0,East,20.7,29.9,0.01,Rain,Light Rain,80,2013-02-19 15:53:00
6:13 AM,69.8,62.6,78,30.16,10.0,ENE,23.0,-,0.00,,Mostly Cloudy,60,2013-02-19 16:13:00
6:53 AM,70.0,62.1,76,30.17,10.0,ENE,19.6,-,0.00,,Mostly Cloudy,70,2013-02-19 16:53:00
7:37 AM,69.8,62.6,78,30.19,10.0,ENE,23.0,31.1,N/A,,Overcast,70,2013-02-19 17:37:00
8:53 AM,72.0,62.1,71,30.20,10.0,NE,20.7,27.6,N/A,,Mostly Cloudy,50,2013-02-19 18:53:00
10:53 AM,75.0,-9999,N/A,30.21,10.0,ENE,20.7,-,N/A,,Partly Cloudy,60,2013-02-19 20:53:00
11:53 AM,75.0,62.6,65,30.19,10.0,ENE,19.6,-,N/A,,Mostly Cloudy,60,2013-02-19 21:53:00
12:53 PM,75.9,62.1,62,30.15,10.0,NE,19.6,27.6,N/A,,Scattered Clouds,50,2013-02-19 22:53:00
2:53 PM,73.9,61.0,64,30.12,10.0,ENE,19.6,-,N/A,,Scattered Clouds,60,2013-02-20 00:53:00
3:53 PM,75.0,61.0,62,30.12,10.0,ENE,16.1,-,N/A,,Clear,60,2013-02-20 01:53:00
4:53 PM,72.0,61.0,68,30.11,10.0,NE,21.9,-,0.00,,Mostly Cloudy,50,2013-02-20 02:53:00
5:53 PM,71.1,61.0,70,30.12,10.0,NE,23.0,28.8,N/A,,Scattered Clouds,50,2013-02-20 03:53:00
6:53 PM,71.1,61.0,70,30.13,10.0,NE,20.7,-,N/A,,Mostly Cloudy,50,2013-02-20 04:53:00
7:53 PM,71.1,59.0,66,30.14,10.0,ENE,20.7,28.8,N/A,,Partly Cloudy,60,2013-02-20 05:53:00
8:53 PM,71.1,60.1,68,30.17,10.0,ENE,20.7,29.9,0.00,,Mostly Cloudy,60,2013-02-20 06:53:00
9:53 PM,66.9,62.1,84,30.17,5.0,NE,19.6,27.6,0.02,Rain,Light Rain,50,2013-02-20 07:53:00
10:53 PM,-9999,-9999,N/A,30.18,4.0,ENE,26.5,42.6,0.00,Rain,Rain,70,2013-02-20 08:53:00
11:53 PM,69.1,64.0,84,30.17,10.0,ENE,20.7,25.3,0.06,,Overcast,60,2013-02-20 09:53:00